Home > Weather > Nantes > Past weeks

Flag for France Past Weather in Nantes, Pays de la Loire, France — Yesterday and Last 2 Weeks

Now
72 °F

Scattered clouds.


Feels Like: 76 °F
Forecast: 55 / 68 °F
Wind: 12 mph from North

Location: Nantes Airport

Current Time: May 30, 2016 at 4:35:07 PM

Latest Report: May 30, 2016 at 4:00 PM


Visibility: N/A

Pressure: 29.95 "Hg

Humidity: 57%

Dew Point: 55 °F

Location of NantesLocation

Past Weather in Nantes — Graph

°F

Nantes Temperature Yesterday

Maximum temperature yesterday: 63 °F (at 11:30 AM)
Minimum temperature yesterday: 55 °F (at 2:00 AM)
Average temperature yesterday: 60 °F

High & Low Weather Summary for the Past Weeks

 TemperatureHumidityPressure
High75 °F (May 27, 3:00 PM)100% (May 16, 3:30 AM)30.24 "Hg (May 16, 3:30 AM)
Low41 °F (May 16, 4:30 AM)42% (May 15, 3:30 PM)29.74 "Hg (May 22, 5:00 AM)
Average58 °F80%29.98 "Hg
* Reported May 15 3:00 PM — May 30 3:30 PM, Nantes, Weather by CustomWeather, © 2016

Note: Actual official high and low records may vary slightly from our data, if they occured in-between our weather recording intervals... More about our weather records

Advertising

Nantes Weather History for the Previous 24 Hours

Scroll right to see more
 ConditionsComfort  
Time TempWeatherWind HumidityBarometerVisibility
3:30 PM
Mon, May 30
68 °FScattered clouds.9 mph60%29.95 "HgN/A
3:00 PM70 °FBroken clouds.8 mph60%29.95 "HgN/A
2:30 PM70 °FBroken clouds.8 mph64%29.95 "HgN/A
2:00 PM70 °FBroken clouds.7 mph64%29.95 "HgN/A
1:30 PM68 °FPartly sunny.7 mph69%29.95 "HgN/A
1:00 PM68 °FBroken clouds.7 mph69%29.95 "HgN/A
12:30 PM66 °FBroken clouds.8 mph78%29.95 "HgN/A
12:00 PM64 °FBroken clouds.7 mph78%29.95 "HgN/A
11:30 AM63 °FPartly sunny.6 mph83%29.95 "Hg5 mi
11:00 AM61 °FPartly sunny.6 mph88%29.92 "Hg4 mi
10:30 AM59 °FBroken clouds.5 mph94%29.92 "Hg4 mi
10:00 AM59 °FPartly sunny.5 mph94%29.92 "Hg3 mi
9:30 AM57 °FClear.3 mph94%29.92 "Hg3 mi
9:00 AM55 °FFog.3 mph100%29.92 "Hg2 mi
8:30 AM55 °FFog.5 mph94%29.92 "Hg2 mi
8:00 AM55 °FClear.3 mph94%29.92 "Hg3 mi
7:30 AM55 °FClear.5 mph94%29.92 "Hg3 mi
7:00 AM55 °FClear.3 mph94%29.89 "Hg3 mi
6:30 AM55 °FLight rain. Fog.3 mph94%29.89 "Hg3 mi
6:00 AM55 °FPassing clouds.5 mph94%29.89 "Hg3 mi
5:30 AM55 °FPassing clouds.6 mph94%29.89 "Hg3 mi
5:00 AM55 °FPartly cloudy.7 mph94%29.89 "Hg2 mi
4:30 AM55 °FRain. Fog.6 mph100%29.89 "Hg2 mi
4:00 AM55 °FLight rain. Fog.9 mph100%29.89 "Hg2 mi
3:30 AM55 °FLight rain. Fog.7 mph100%29.89 "Hg2 mi
3:00 AM57 °FLight rain. Fog.8 mph94%29.89 "Hg2 mi
2:30 AM57 °FRain. Fog.7 mph94%29.89 "Hg2 mi
2:00 AM57 °FRain. Passing clouds.6 mph94%29.92 "Hg2 mi
1:30 AM57 °FRain. Passing clouds.6 mph100%29.92 "Hg2 mi
1:00 AM57 °FRain. Passing clouds.6 mph100%29.92 "Hg2 mi
12:30 AM59 °FLight rain. Passing clouds.7 mph94%29.92 "Hg2 mi
12:00 AM59 °FRain. Passing clouds.8 mph94%29.92 "Hg1 mi
11:30 PM
Sun, May 29
59 °FRain. Passing clouds.6 mph94%29.89 "Hg2 mi
11:00 PM59 °FRain. Passing clouds.9 mph94%29.89 "Hg2 mi
10:30 PM59 °FThunderstorms. Broken clouds.8 mph94%29.89 "Hg2 mi
10:00 PM59 °FRain. Fog.6 mph94%29.89 "Hg2 mi
9:30 PM59 °FRain. Fog.7 mph94%29.89 "Hg2 mi
9:00 PM59 °FRain. Fog.7 mph100%29.89 "Hg2 mi
8:30 PM59 °FRain. Fog.7 mph100%29.89 "Hg2 mi
8:00 PM59 °FRain. Fog.7 mph100%29.86 "Hg2 mi
7:30 PM59 °FLight rain. Broken clouds.9 mph100%29.86 "Hg3 mi
7:00 PM61 °FLight rain. Broken clouds.7 mph94%29.86 "Hg3 mi
6:30 PM61 °FLight rain. Broken clouds.6 mph94%29.86 "Hg3 mi
6:00 PM61 °FLight rain. Broken clouds.8 mph94%29.86 "Hg3 mi
5:30 PM61 °FLight rain. Broken clouds.8 mph94%29.86 "Hg2 mi
5:00 PM63 °FLight rain. Broken clouds.9 mph94%29.86 "Hg3 mi
4:30 PM63 °FLight rain. Broken clouds.7 mph88%29.86 "Hg3 mi
4:00 PM63 °FLight rain. Broken clouds.6 mph88%29.86 "Hg3 mi
Weather by CustomWeather, © 2016

See weather overviewHow to use our weather pages